Probability
10 6 6 6 6 13 19 13 13 16 16 16 19 10 10 10 13 19 16 74 77 87 84 84 84 77 77 77 77 65 61 61 58 55 55 45 45 48 48 48 52 45 55
10 10 10 6 6 13 19 16 10 16 13 13 16 16 10 6 6 13 10 35 84 87 81 81 84 87 81 74 68 77 65 52 52 58 52 52 55 48 42 42 42 45 42
6 10 13 6 6 23 23 13 13 13 13 13 10 10 6 10 10 6 13 19 39 71 81 81 81 81 77 77 71 71 65 55 52 45 52 52 55 52 48 45 42 45 42
13 13 13 13 13 23 23 19 16 13 16 10 10 6 3 3 10 16 16 6 10 16 55 84 84 81 81 71 68 61 55 55 48 45 42 48 42 42 45 48 48 48 45
19 23 16 16 19 23 19 26 10 10 13 13 13 13 6 6 3 10 6 6 6 3 10 48 74 77 77 74 68 61 52 58 42 39 39 39 39 42 39 39 42 45 39
19 19 16 19 19 19 10 19 19 16 13 13 13 6 0 0 3 6 16 3 6 10 3 13 39 68 71 74 65 58 58 52 42 42 39 39 39 39 42 39 39 32 35
23 23 23 16 19 16 13 23 23 23 16 13 3 3 3 0 0 3 3 6 3 3 6 6 6 10 32 61 61 65 61 52 48 42 42 42 39 39 39 32 29 35 35
23 29 16 16 10 13 16 16 13 19 23 16 10 6 3 0 0 0 0 6 3 6 6 13 13 13 13 13 19 55 58 55 52 45 45 42 42 42 32 32 32 29 26
32 32 26 13 10 16 3 3 6 10 13 10 6 10 6 3 3 0 0 0 0 0 3 3 6 10 13 13 10 19 52 52 48 39 42 42 35 39 35 29 32 29 23
19 19 19 6 6 6 6 3 13 3 10 10 10 6 6 6 6 6 0 0 0 0 0 0 6 6 16 16 10 10 29 35 42 48 39 45 39 39 29 29 26 26 26
19 19 13 10 6 6 3 3 3 10 10 10 10 6 6 6 6 6 6 3 3 0 0 0 0 0 10 10 10 3 13 23 26 32 35 39 42 39 35 35 23 19 19
23 26 13 10 10 10 13 10 10 10 10 6 10 10 10 10 10 6 6 6 0 0 0 0 0 0 3 3 6 6 6 3 6 16 23 23 32 39 35 32 29 23 23
23 23 26 16 10 13 16 19 16 19 6 6 10 6 10 13 6 6 6 3 0 0 0 0 0 0 3 3 0 10 13 6 3 3 3 13 19 23 29 26 29 29 26
29 23 19 16 16 19 23 16 16 19 16 13 10 6 10 10 10 10 6 3 0 0 0 0 0 3 3 3 0 0 0 3 0 0 0 0 0 6 10 13 16 16 10
35 32 26 26 23 23 26 29 23 19 19 16 13 10 6 10 13 10 6 3 0 0 0 0 3 3 3 0 3 0 0 0 0 0 0 0 0 0 0 0 3 3 3
35 32 32 29 26 26 29 29 23 16 16 10 13 13 3 10 16 10 6 3 0 0 0 0 3 3 3 6 3 3 0 0 0 0 0 0 0 0 0 0 0 0 0
32 32 29 29 26 29 29 19 23 19 19 16 16 13 10 10 10 6 6 6 3 0 0 0 0 6 0 3 0 0 0 0 0 0 0 0 0 0 0 0 0 0 0
32 32 29 26 29 32 29 29 23 26 23 16 13 6 6 6 6 6 10 6 3 3 3 3 0 0 0 0 0 0 0 3 0 0 0 0 0 0 0 0 0 0 0
29 29 29 29 29 29 26 26 26 23 26 23 13 10 10 10 10 10 10 6 6 6 0 3 3 0 0 0 0 0 3 3 3 0 0 0 0 0 0 0 0 0 0
26 29 29 29 29 26 26 29 26 23 19 23 13 10 10 10 10 10 10 6 6 6 6 3 3 3 0 0 0 0 0 0 3 0 0 0 0 0 0 0 0 0 0
26 29 26 26 29 26 26 29 29 26 19 16 16 13 13 10 10 10 13 6 10 6 6 3 0 0 0 0 0 0 0 0 0 0 0 0 0 0 0 0 0 0 0
26 26 26 26 29 29 23 19 23 16 13 10 10 13 16 13 6 6 6 6 3 6 6 0 0 0 0 0 0 0 0 0 0 0 0 0 0 0 0 0 0 0 0
26 29 29 26 26 19 13 10 13 13 10 10 10 10 13 16 6 6 3 3 3 0 0 3 3 0 0 0 0 0 0 0 0 0 0 0 0 0 0 0 0 0 0
26 26 29 19 16 16 10 10 6 3 6 6 6 6 6 10 3 3 3 3 3 3 0 0 0 0 0 0 0 0 0 0 0 0 0 0 0 0 0 0 0 0 0
32 19 19 19 19 16 6 3 3 3 6 6 3 6 6 6 0 0 0 3 3 3 0 0 0 0 0 0 0 0 0 0 0 0 0 0 0 0 0 0 0 0 0
35 29 26 23 16 10 6 3 0 3 0 3 3 0 0 0 0 0 0 0 0 6 3 3 0 0 0 0 0 0 0 0 0 0 0 0 0 0 0 0 0 0 0
Height
5902 5901 5901 5900 5900 5899 5898 5898 5897 5897 5897 5897 5897 5897 5896 5896 5895 5895 5895 5895 5894 5894 5894 5893 5893 5892 5891 5891 5891 5891 5890 5890 5889 5889 5888 5888 5888 5887 5887 5887 5887 5887 5886
5902 5902 5901 5900 5899 5899 5898 5897 5897 5897 5897 5896 5896 5896 5895 5895 5894 5895 5894 5894 5893 5893 5893 5892 5892 5891 5890 5890 5890 5889 5889 5889 5888 5887 5887 5887 5886 5886 5886 5886 5885 5885 5885
5902 5901 5901 5900 5899 5898 5898 5897 5896 5896 5896 5896 5895 5895 5894 5894 5894 5894 5893 5893 5892 5892 5892 5891 5891 5890 5889 5889 5889 5888 5888 5887 5887 5886 5885 5885 5885 5885 5884 5884 5883 5883 5883
5901 5900 5900 5899 5899 5898 5897 5896 5896 5895 5895 5894 5894 5894 5893 5893 5892 5892 5892 5891 5890 5890 5890 5889 5889 5888 5888 5887 5887 5887 5886 5885 5885 5884 5884 5883 5883 5883 5882 5882 5881 5881 5880
5900 5899 5899 5898 5897 5897 5896 5895 5894 5894 5893 5893 5892 5892 5892 5891 5890 5890 5890 5889 5889 5888 5888 5887 5887 5886 5886 5886 5885 5884 5884 5883 5883 5883 5882 5881 5881 5880 5880 5879 5879 5878 5878
5899 5898 5897 5897 5896 5895 5894 5893 5893 5892 5891 5891 5890 5890 5890 5889 5889 5888 5888 5887 5886 5886 5886 5885 5884 5884 5884 5883 5883 5882 5882 5881 5881 5880 5880 5879 5878 5878 5877 5877 5876 5876 5875
5898 5897 5896 5895 5895 5894 5893 5892 5891 5890 5890 5889 5889 5888 5888 5887 5887 5886 5885 5885 5885 5884 5883 5882 5881 5881 5881 5881 5880 5880 5879 5879 5878 5877 5877 5876 5875 5875 5874 5874 5873 5872 5872
5897 5896 5895 5894 5893 5892 5891 5890 5890 5889 5888 5887 5887 5886 5886 5885 5884 5884 5883 5883 5882 5881 5880 5880 5879 5878 5878 5877 5877 5877 5876 5875 5875 5874 5873 5873 5872 5871 5871 5870 5869 5869 5868
5895 5894 5893 5892 5892 5891 5890 5889 5888 5887 5886 5885 5885 5884 5884 5883 5882 5881 5881 5880 5879 5879 5878 5877 5876 5875 5875 5874 5874 5873 5873 5871 5871 5870 5870 5869 5868 5867 5867 5866 5865 5865 5864
5894 5892 5892 5891 5890 5889 5888 5887 5886 5885 5884 5883 5882 5881 5881 5881 5880 5879 5878 5877 5876 5876 5875 5874 5873 5872 5871 5870 5869 5869 5868 5867 5867 5866 5865 5864 5864 5863 5862 5861 5860 5860 5859
5892 5890 5889 5889 5888 5886 5886 5884 5883 5882 5881 5880 5879 5879 5878 5878 5877 5877 5875 5874 5873 5872 5871 5870 5870 5869 5867 5866 5865 5864 5864 5863 5862 5862 5861 5860 5859 5858 5857 5856 5855 5854 5854
5889 5888 5887 5886 5885 5884 5883 5882 5880 5879 5878 5877 5876 5876 5875 5875 5874 5873 5872 5871 5870 5869 5868 5867 5866 5865 5863 5862 5862 5861 5859 5858 5858 5857 5856 5855 5854 5853 5852 5851 5851 5850 5849
5887 5886 5884 5883 5882 5881 5880 5879 5878 5876 5875 5874 5873 5872 5872 5871 5870 5869 5869 5868 5866 5865 5864 5863 5862 5861 5859 5858 5857 5856 5854 5853 5853 5851 5850 5849 5848 5848 5847 5846 5846 5845 5844
5884 5883 5881 5880 5879 5878 5876 5875 5874 5873 5872 5871 5870 5869 5868 5867 5866 5865 5865 5864 5863 5862 5860 5859 5858 5856 5855 5853 5852 5851 5850 5849 5848 5846 5845 5843 5842 5842 5841 5841 5840 5840 5839
5881 5880 5878 5877 5875 5874 5873 5871 5870 5869 5868 5867 5866 5865 5865 5864 5862 5861 5860 5859 5859 5857 5856 5854 5853 5851 5850 5849 5847 5846 5845 5844 5842 5841 5839 5838 5837 5836 5836 5835 5835 5834 5833
5877 5876 5875 5873 5872 5870 5869 5867 5866 5865 5864 5863 5862 5861 5860 5859 5858 5857 5856 5854 5853 5853 5851 5850 5848 5846 5845 5843 5842 5840 5839 5838 5837 5835 5834 5832 5831 5830 5830 5829 5828 5828 5827
5873 5872 5870 5869 5867 5866 5864 5863 5861 5861 5859 5858 5857 5856 5855 5854 5853 5851 5850 5849 5848 5847 5846 5844 5842 5841 5839 5838 5836 5835 5833 5832 5830 5829 5827 5826 5825 5824 5824 5823 5822 5821 5821
5868 5867 5866 5864 5863 5861 5860 5858 5857 5855 5854 5853 5851 5850 5849 5848 5846 5845 5844 5842 5841 5840 5839 5837 5836 5834 5833 5832 5830 5829 5827 5826 5824 5823 5821 5820 5819 5818 5817 5816 5816 5815 5814
5863 5861 5860 5859 5857 5856 5855 5853 5852 5850 5848 5847 5845 5844 5842 5841 5840 5838 5837 5835 5834 5833 5831 5830 5829 5827 5826 5825 5823 5822 5820 5819 5817 5816 5815 5814 5812 5811 5811 5810 5808 5808 5807
5857 5856 5854 5853 5852 5851 5849 5847 5846 5845 5843 5841 5839 5838 5836 5835 5833 5831 5830 5828 5826 5825 5824 5823 5821 5820 5818 5817 5816 5814 5813 5812 5810 5809 5808 5807 5805 5804 5803 5802 5801 5800 5799
5852 5850 5849 5848 5846 5845 5843 5842 5840 5838 5837 5835 5833 5831 5829 5828 5826 5824 5822 5821 5819 5817 5816 5815 5813 5812 5810 5809 5808 5806 5805 5804 5803 5802 5801 5799 5798 5797 5796 5794 5793 5791 5791
5846 5844 5843 5841 5840 5838 5837 5835 5833 5831 5829 5828 5826 5824 5822 5820 5819 5817 5815 5813 5811 5810 5808 5807 5805 5804 5802 5801 5799 5798 5797 5796 5795 5794 5793 5792 5791 5789 5788 5787 5785 5784 5783
5839 5838 5836 5834 5833 5831 5830 5828 5826 5824 5822 5820 5818 5817 5815 5813 5811 5809 5807 5805 5803 5801 5800 5799 5797 5795 5794 5792 5790 5789 5788 5787 5786 5785 5784 5784 5783 5782 5780 5778 5777 5776 5775
5832 5830 5829 5827 5825 5824 5822 5820 5818 5816 5814 5812 5810 5809 5807 5804 5802 5800 5799 5796 5794 5793 5791 5790 5788 5786 5784 5783 5781 5780 5779 5778 5777 5776 5775 5775 5774 5773 5772 5770 5769 5768 5767
5824 5822 5821 5819 5817 5816 5814 5812 5810 5808 5806 5804 5802 5800 5798 5796 5794 5792 5790 5788 5786 5783 5782 5780 5778 5776 5775 5773 5772 5771 5769 5769 5768 5767 5766 5766 5765 5764 5763 5762 5760 5759 5758
5815 5813 5812 5810 5809 5807 5806 5804 5802 5799 5797 5795 5793 5791 5789 5787 5784 5782 5780 5779 5777 5775 5773 5771 5769 5767 5766 5764 5762 5761 5760 5759 5758 5758 5757 5756 5755 5755 5754 5753 5752 5751 5750
Wind_Speed
3 3 2 2 3 3 3 2 2 1 1 2 2 3 2 2 3 3 3 3 2 2 2 2 2 2 2 3 3 3 3 3 4 4 4 4 5 5 5 5 6 6 6
3 2 3 2 2 3 3 2 2 1 2 3 3 3 3 3 3 3 3 4 3 3 3 3 3 2 2 3 4 4 4 4 4 4 4 5 5 6 6 7 7 7 7
3 2 2 2 2 3 3 2 3 3 3 3 4 4 4 4 4 4 5 4 4 5 4 4 4 4 4 3 5 6 6 5 5 5 5 5 6 6 7 8 8 9 9
3 3 3 3 3 4 4 4 4 4 5 5 5 5 5 6 6 5 6 6 5 6 6 5 5 5 5 6 6 7 8 7 7 6 6 6 7 7 8 9 10 10 10
3 3 4 4 4 5 5 5 5 5 6 6 6 7 7 7 6 7 8 8 7 8 8 7 7 7 7 7 7 7 7 8 8 8 8 8 8 9 9 10 10 11 11
4 5 5 5 5 5 6 6 6 6 7 7 6 7 8 8 8 8 8 8 8 8 8 9 9 9 9 10 9 9 9 9 10 10 10 10 10 11 10 11 11 11 12
5 6 6 5 6 5 5 6 6 6 6 7 7 7 7 8 8 9 8 8 9 10 10 9 10 10 11 11 10 10 11 11 11 12 12 12 12 12 13 13 13 13 14
5 5 5 6 6 6 6 6 6 7 7 7 8 7 7 8 8 8 9 9 10 10 10 11 10 10 11 11 11 11 12 12 13 13 13 13 13 14 14 15 15 15 15
5 5 5 6 7 7 7 7 7 8 8 8 8 8 8 8 8 9 9 10 10 11 11 11 11 12 12 12 13 13 14 14 14 14 14 14 14 15 15 16 16 16 16
6 6 7 7 8 8 8 8 8 9 9 9 9 8 8 8 9 10 11 11 11 11 11 12 13 13 13 14 14 15 15 15 15 16 16 16 16 16 16 17 17 17 18
8 8 8 9 9 9 9 9 9 9 9 9 9 9 9 9 10 11 11 12 13 12 12 13 14 15 15 15 15 16 16 16 16 17 17 17 18 18 17 17 18 18 19
9 9 9 9 10 10 10 9 10 10 9 9 9 10 11 11 11 12 12 13 14 14 13 14 14 16 16 16 16 16 16 17 17 17 18 18 19 19 18 18 18 18 19
10 10 10 11 11 11 11 10 10 10 10 10 11 11 12 12 13 13 13 13 14 14 15 15 15 16 16 17 17 17 17 17 18 18 18 19 19 19 19 19 19 19 20
10 10 11 12 12 12 11 11 11 11 11 11 12 12 13 13 13 13 14 14 14 15 15 16 17 17 18 18 18 18 18 18 18 19 19 19 19 19 19 19 19 20 19
12 12 12 12 13 12 12 12 12 13 13 13 13 14 14 15 15 16 16 16 16 16 17 18 19 19 19 19 19 19 19 20 20 19 19 20 20 20 20 21 20 20 21
13 13 13 13 14 14 14 14 14 15 15 15 16 16 17 17 17 17 17 18 18 18 19 20 20 20 20 20 20 20 20 21 21 20 20 21 21 21 21 22 22 21 22
15 15 15 15 15 15 15 15 16 17 17 17 17 18 19 19 19 20 20 20 20 20 20 21 21 21 21 20 20 20 21 21 21 21 22 22 21 22 22 22 22 23 23
16 17 17 17 17 16 16 16 18 18 19 19 19 20 20 21 21 22 22 22 21 21 22 22 22 22 23 22 22 22 22 22 23 22 22 22 22 23 23 24 24 25 25
18 19 19 18 18 18 18 18 19 20 20 21 21 22 22 22 22 23 23 23 23 22 23 22 23 24 24 24 24 24 24 24 24 23 23 23 24 24 24 25 25 25 26
19 19 20 20 19 19 19 20 21 21 21 22 22 22 23 24 24 24 25 25 25 25 25 25 25 25 26 26 26 25 25 26 25 24 24 25 25 24 24 25 26 26 26
20 21 21 21 21 21 21 22 22 23 23 24 24 24 24 25 25 26 27 27 27 25 26 26 26 26 28 28 27 26 26 27 26 26 26 25 26 25 24 24 25 26 26
22 22 22 22 23 23 23 24 24 24 25 25 25 26 26 27 27 28 28 27 27 27 27 27 27 27 28 28 28 28 28 28 28 27 27 27 26 27 27 27 26 25 26
24 24 24 24 24 24 25 26 26 26 26 27 28 28 29 29 29 29 29 29 28 28 28 28 28 28 29 29 29 29 30 29 28 28 28 28 28 28 28 27 26 26 26
26 26 26 26 26 26 26 27 27 27 29 29 29 30 30 30 30 30 30 29 29 29 29 29 30 30 30 30 30 30 30 30 29 29 29 29 28 28 28 27 26 26 26
27 26 26 27 27 27 27 28 29 29 30 30 30 30 31 31 31 31 30 30 30 30 30 30 30 29 30 30 30 30 30 29 29 29 29 29 29 29 28 27 27 27 27
28 28 28 28 28 28 29 29 30 30 31 31 31 31 31 31 30 30 30 30 30 30 30 30 30 29 29 29 30 30 29 29 29 29 30 30 29 29 28 28 28 28 27
Wind_Direction
48 52 47 25 15 9 13 14 339 302 259 254 245 251 257 266 255 252 252 267 259 277 295 304 300 287 264 263 263 264 277 283 284 282 270 268 266 262 264 265 267 262 261
42 46 34 9 354 356 355 345 315 280 273 264 259 262 278 274 279 257 259 264 270 276 279 278 277 288 293 268 264 266 277 279 282 283 281 276 269 266 264 266 268 266 263
27 28 15 3 346 348 346 332 315 292 284 282 277 272 272 277 280 272 267 259 262 264 266 268 274 280 279 282 269 262 268 277 279 282 280 276 275 273 273 276 272 268 266
7 2 358 346 333 325 323 314 303 294 286 283 279 274 269 268 263 270 269 262 266 270 268 264 267 272 274 279 274 269 270 270 273 278 277 274 274 272 273 274 273 270 268
5 358 353 335 327 324 318 311 304 297 289 284 279 277 272 270 265 273 270 274 275 273 272 270 270 271 273 274 271 272 275 272 272 273 272 272 272 273 270 272 274 272 269
358 353 346 338 331 325 319 312 305 302 295 288 282 282 280 277 275 273 272 274 274 276 276 274 272 272 268 268 268 267 270 271 272 271 272 272 270 271 273 272 273 275 272
342 340 338 332 330 328 324 321 314 307 300 293 287 287 285 281 277 276 279 277 272 273 272 274 275 272 270 270 269 269 269 271 271 271 271 271 272 271 273 273 272 272 271
339 334 328 325 324 318 314 313 310 305 301 297 291 288 285 288 281 277 273 274 274 271 272 274 276 276 273 272 270 272 275 273 273 272 272 271 272 272 273 273 272 273 271
329 329 322 326 326 318 313 313 311 305 300 295 285 283 278 280 282 279 277 275 275 275 276 274 276 276 275 272 271 273 276 274 274 275 275 275 273 273 273 273 273 272 271
315 314 313 314 318 314 311 309 305 299 295 292 285 278 277 275 278 281 284 283 281 281 283 285 283 279 278 277 275 279 277 274 275 276 275 275 276 276 275 274 273 273 272
309 310 311 309 306 307 309 308 304 301 295 292 287 282 277 279 281 286 290 290 288 288 287 286 285 285 284 281 280 276 277 278 278 277 277 277 276 276 277 275 274 273 270
308 308 309 309 308 305 306 306 306 305 302 298 292 288 284 284 288 291 291 289 288 287 289 289 289 289 288 282 281 281 278 275 277 277 277 279 279 276 276 277 278 276 271
310 308 309 309 307 305 300 300 303 301 300 297 293 288 287 285 287 290 290 289 288 288 289 290 290 290 290 287 283 280 280 279 279 281 282 282 281 278 277 277 278 278 276
308 308 307 309 307 302 298 295 296 293 295 296 292 290 288 288 288 290 291 290 288 286 288 289 291 291 290 289 288 283 281 281 281 280 281 281 280 277 275 277 277 277 278
300 301 304 307 306 303 297 289 290 289 289 290 289 288 288 287 288 290 290 290 288 288 289 289 290 290 288 288 288 284 283 280 281 280 279 279 278 278 277 278 278 277 278
296 298 299 300 301 300 296 292 286 287 288 285 285 285 286 288 288 287 287 288 287 286 286 287 287 288 288 289 286 284 285 284 280 278 277 277 278 278 277 277 278 279 279
294 294 296 296 297 297 300 296 294 290 290 289 286 284 284 287 288 288 287 288 288 286 286 286 286 286 286 287 289 289 289 286 282 281 278 277 277 277 277 276 277 277 277
294 294 293 295 296 295 296 297 296 293 290 293 290 288 287 288 288 288 287 287 287 288 288 286 285 285 285 286 288 289 289 287 283 281 279 278 277 279 279 278 277 277 276
292 293 292 292 293 293 293 295 295 294 293 291 291 289 289 289 288 288 286 286 286 288 289 288 286 286 286 286 286 286 287 287 285 281 279 278 278 279 279 279 278 278 276
290 292 292 290 289 289 290 293 292 292 290 290 290 287 288 289 289 288 288 287 286 287 287 287 287 286 286 287 287 285 285 284 283 281 281 281 280 280 279 281 279 277 276
292 293 293 291 289 287 288 291 290 290 289 290 289 288 288 289 290 290 289 288 288 288 288 286 285 285 284 285 285 285 283 282 281 281 281 281 280 280 280 281 281 278 276
289 290 292 290 288 287 288 289 289 289 288 288 289 288 288 289 290 290 291 291 291 290 289 286 285 285 284 284 284 283 283 282 281 280 280 280 280 281 281 282 281 279 276
286 287 288 289 288 288 289 288 288 287 285 285 286 287 288 289 290 291 292 292 290 289 289 287 286 286 286 285 285 283 281 280 279 279 279 279 279 279 280 280 279 277 277
284 285 285 285 286 288 288 289 289 288 286 284 285 286 288 289 290 292 292 291 289 288 288 287 286 285 285 284 282 282 280 278 276 275 276 277 278 279 278 278 278 278 277
283 283 285 285 285 286 287 287 287 287 287 288 289 288 289 290 290 291 291 289 289 289 288 288 287 287 286 284 283 281 278 276 275 275 276 277 277 278 278 278 277 277 276
282 282 284 285 286 285 286 286 286 287 289 289 289 289 289 289 290 290 290 289 288 289 288 288 287 287 285 284 284 282 281 279 278 278 277 278 278 278 278 278 277 277 275